RH
19 19 20 20 20 21 21 21 22 22 22 23 23 23 24 24 25 26 26 26 26 24 21 19 14 11 8 6 6 6 5 4 4 4 4 4 3 4 3 3 3 3 3 2 2 2 2 2 2 2 2 2
18 18 20 20 20 20 21 21 21 22 22 23 23 23 23 24 24 25 26 26 27 27 26 23 20 17 13 9 7 6 6 5 5 4 3 4 3 3 3 3 4 3 3 3 3 3 2 2 2 2 2 2
18 19 20 20 20 20 21 21 21 22 22 23 23 23 24 24 24 24 25 25 26 27 28 27 25 23 20 16 12 9 7 7 6 6 4 4 4 3 4 3 4 3 3 3 3 3 3 3 2 2 2 2
18 19 20 20 21 21 21 21 22 22 22 23 23 23 24 24 24 24 24 25 25 26 27 28 29 27 26 23 20 16 12 9 7 7 6 5 5 4 4 4 4 4 3 3 3 3 3 3 3 2 2 2
20 20 21 21 21 22 22 22 22 23 23 23 23 24 24 24 24 24 25 25 25 25 25 27 29 29 29 28 25 23 18 14 10 8 8 7 7 5 5 4 4 4 4 4 3 3 3 3 3 3 3 2
21 21 22 22 22 23 23 24 24 23 24 24 24 24 24 25 24 25 25 25 25 25 25 25 27 28 30 30 28 27 24 20 15 11 9 8 8 7 7 6 5 4 4 4 4 4 3 3 3 3 3 3
22 23 23 24 24 25 25 25 25 25 25 25 25 25 25 25 25 25 25 26 26 25 25 25 26 26 28 29 30 30 28 26 22 17 13 10 9 9 9 7 6 5 5 4 4 4 3 3 3 3 3 3
23 24 24 25 25 25 26 26 26 26 26 26 26 26 25 26 26 26 26 26 26 26 26 25 25 25 26 27 29 30 31 31 28 25 19 14 12 10 10 9 8 7 6 5 4 4 4 4 3 3 3 3
24 25 25 25 26 26 27 27 27 27 27 27 27 27 27 26 27 27 27 27 27 27 27 27 26 25 26 26 27 28 30 32 32 31 27 21 16 13 11 11 10 9 7 6 5 5 4 4 4 4 4 3
25 25 26 26 27 27 28 29 29 29 29 29 29 29 29 28 29 28 28 28 27 28 28 28 27 27 26 26 26 27 27 29 31 33 32 29 23 17 14 12 11 10 9 8 6 6 5 5 5 4 4 4
26 26 27 28 29 29 30 31 31 32 32 32 32 32 32 32 32 32 30 30 29 30 29 29 29 29 28 27 27 27 27 27 28 31 33 34 30 22 16 13 12 11 10 9 7 6 5 5 5 5 5 5
27 28 29 30 30 31 32 33 33 34 35 35 35 35 35 35 35 35 33 32 32 32 31 31 31 30 30 29 28 28 28 28 28 28 30 33 33 27 19 14 12 12 11 10 9 7 6 6 5 5 6 5
29 30 31 32 32 33 33 34 35 36 37 37 38 38 38 38 38 38 37 36 35 34 33 33 33 32 32 31 30 30 29 29 29 28 27 29 31 30 23 17 12 12 12 11 10 8 7 6 6 6 6 6
31 32 32 33 33 34 35 36 38 39 40 40 40 40 40 40 40 40 39 38 38 38 36 35 35 34 34 33 33 32 30 30 30 28 27 25 27 28 25 22 15 12 13 12 11 10 9 7 7 6 6 6
33 34 34 35 35 36 38 39 40 41 42 42 42 42 42 42 41 41 41 40 40 39 38 37 36 35 35 35 34 34 32 31 31 30 28 25 24 24 24 24 19 14 14 14 12 11 10 8 7 7 6 7
34 36 37 38 39 40 41 41 42 43 44 45 44 44 44 43 43 43 42 42 42 41 41 39 38 38 37 36 36 35 34 32 31 30 29 26 23 22 23 25 22 18 17 15 14 13 12 10 9 8 8 7
37 39 40 41 42 43 43 43 44 45 46 47 46 46 45 46 45 45 45 44 44 43 42 42 41 40 38 39 38 36 35 33 32 31 31 28 25 23 21 23 24 21 20 19 16 14 13 12 11 10 9 8
37 37 39 42 44 45 45 45 46 47 48 49 48 48 48 48 48 47 48 47 47 47 47 46 45 43 41 40 39 38 37 35 34 33 32 30 27 25 21 20 22 22 24 23 19 15 14 14 12 11 10 10
29 32 36 41 44 46 47 47 47 49 51 51 51 51 51 51 51 52 52 51 51 51 50 50 50 50 47 44 41 40 39 38 37 35 33 32 31 29 25 21 19 22 25 26 24 18 15 14 13 12 12 11
23 27 33 40 45 48 49 48 49 51 53 55 54 54 55 55 55 54 52 51 50 49 47 47 47 49 49 48 45 42 41 40 38 38 36 35 33 32 29 24 19 19 23 26 26 22 17 15 14 13 13 12
25 26 32 40 46 48 49 49 50 53 54 54 54 54 55 55 52 48 45 44 44 44 43 43 43 44 47 47 47 46 45 43 41 40 39 37 36 35 32 27 22 18 20 24 25 24 20 17 16 15 14 13
33 31 33 38 41 43 45 47 49 50 50 50 51 51 50 48 45 41 39 39 41 42 40 42 42 42 44 45 46 47 47 47 45 42 40 39 37 36 34 30 25 18 16 20 23 24 24 21 17 15 15 14
35 34 33 34 34 35 36 38 39 39 40 42 42 42 42 40 38 38 37 36 38 40 40 40 41 42 44 45 45 46 47 48 47 45 43 41 39 38 36 33 28 20 15 18 21 23 25 24 21 18 16 15
33 33 34 34 32 32 31 31 32 33 34 36 36 36 36 35 34 35 36 36 36 35 36 38 41 43 45 46 47 46 46 47 48 48 47 44 42 39 37 35 30 22 17 18 21 23 25 26 24 21 17 15
38 38 39 39 37 34 31 30 32 33 34 36 38 39 41 40 41 42 43 44 41 37 34 34 38 44 46 47 48 47 47 47 48 49 49 48 47 43 39 37 33 26 21 22 23 22 24 25 27 25 21 17
47 47 47 46 44 42 38 37 37 39 39 40 40 40 44 48 49 50 51 52 51 47 40 35 36 40 45 48 48 48 47 47 48 49 50 50 49 47 44 39 35 30 25 26 24 23 26 27 27 29 26 23
51 52 54 54 53 52 50 48 48 49 49 49 47 43 42 47 51 51 53 55 56 55 50 43 38 37 40 44 46 47 47 46 47 48 49 50 50 50 49 45 40 35 31 29 27 30 35 34 33 33 30 27
56 57 58 59 58 58 57 56 56 56 55 55 54 50 44 43 47 51 55 58 59 59 58 54 48 43 40 40 42 45 46 46 46 47 48 49 50 50 51 51 47 42 38 34 32 36 41 42 43 43 35 30
63 63 63 63 62 61 58 57 57 58 58 58 56 55 51 47 49 55 59 61 60 60 60 59 57 53 49 46 44 44 45 45 45 46 47 48 50 50 50 51 50 48 44 40 37 38 41 43 45 43 39 35
63 63 61 58 58 60 60 58 57 56 58 59 59 59 57 56 55 57 61 62 62 61 61 61 60 59 56 54 52 50 48 46 45 43 44 48 49 51 51 50 50 49 50 48 43 39 38 39 40 39 41 46
45 43 39 36 37 46 54 59 60 60 60 61 62 62 61 61 59 59 62 63 63 62 62 62 62 62 60 58 57 56 55 52 50 46 44 46 48 50 51 51 51 50 52 53 50 46 40 37 39 40 44 52
Wind_Speed
10 11 12 13 13 14 15 15 16 16 17 18 19 20 21 21 21 21 21 21 20 19 18 18 18 18 17 17 17 17 17 17 18 18 18 18 17 17 16 17 17 17 17 17 18 19 19 19 18 18 19 21
10 10 11 12 13 13 15 15 16 17 17 18 19 19 20 21 22 23 23 22 22 21 20 19 19 18 18 17 17 17 17 17 17 18 19 19 18 18 17 16 16 17 18 18 19 19 19 19 19 19 19 19
10 10 11 12 13 13 15 15 16 17 18 18 18 19 20 20 21 22 23 23 23 22 21 20 19 18 18 18 17 17 16 16 16 17 19 19 19 19 19 17 16 16 17 18 19 19 20 20 20 20 19 19
11 11 12 12 13 14 15 16 16 17 18 18 18 19 19 19 20 20 22 23 23 23 22 21 20 19 18 18 18 18 17 17 16 17 18 19 20 20 20 20 17 16 16 17 18 19 20 20 20 20 20 20
12 12 13 13 14 15 16 17 17 18 18 19 19 19 20 20 19 19 20 21 22 22 23 23 22 21 20 20 19 19 19 18 17 17 18 19 20 20 21 21 19 18 17 17 17 18 19 19 20 20 20 21
13 13 14 15 16 17 17 18 19 19 19 19 19 20 20 21 20 20 20 20 21 21 22 23 23 23 22 21 21 20 20 19 19 18 18 19 20 20 21 21 21 20 19 18 17 17 18 18 19 19 19 20
14 15 16 17 17 18 19 20 20 21 20 20 20 21 21 21 21 21 21 21 21 21 21 22 22 22 23 22 22 21 21 20 20 19 19 19 20 20 21 21 22 21 21 20 18 18 18 18 18 18 18 19
16 17 17 18 19 20 21 21 22 22 22 22 23 23 23 23 23 23 22 22 22 21 21 21 21 21 22 23 23 23 22 22 21 21 20 20 20 21 21 21 21 22 22 21 20 19 19 18 18 18 18 18
18 18 19 20 21 22 23 24 24 24 24 24 25 25 25 25 24 24 24 23 23 22 22 21 20 21 21 22 23 24 24 23 23 23 22 21 21 21 21 21 21 22 23 22 22 21 20 20 19 19 19 19
19 19 20 21 22 23 24 25 26 26 26 26 26 27 27 27 26 26 25 25 24 24 23 22 21 21 21 21 22 23 23 24 24 23 23 22 22 21 21 22 22 22 23 23 23 22 21 21 21 20 20 19
19 20 22 23 23 25 26 27 28 28 28 27 28 28 28 28 28 28 27 27 26 26 25 24 23 21 21 21 21 22 23 23 23 24 23 23 22 22 22 22 22 23 23 24 24 23 23 22 22 21 21 21
20 21 23 23 24 26 27 28 29 28 28 28 28 28 28 29 29 29 28 28 27 27 27 25 24 23 22 21 21 22 23 23 23 23 24 23 23 22 22 22 22 23 23 24 24 24 24 23 23 22 23 22
20 22 23 24 25 26 27 28 28 28 28 28 28 28 28 29 29 29 29 28 28 28 28 27 26 24 23 22 22 22 22 23 23 23 23 23 23 23 23 22 22 23 23 23 24 25 24 24 23 23 24 23
21 22 23 24 25 25 26 26 27 27 27 27 28 28 28 29 29 29 29 29 29 29 28 27 27 26 25 23 22 23 23 23 23 23 23 23 23 23 23 23 23 24 24 24 24 25 25 25 24 24 24 24
21 21 22 23 23 24 25 25 26 27 27 26 27 27 27 28 28 29 29 29 29 29 28 27 27 26 25 24 23 23 23 23 23 23 23 24 23 23 23 23 24 24 24 24 24 25 25 25 25 25 25 24
19 19 20 21 22 23 23 25 26 27 26 26 26 26 26 27 27 28 29 29 28 28 28 27 27 26 26 24 23 23 24 23 23 24 23 24 24 23 23 23 24 24 25 25 25 25 25 25 25 25 25 25
16 17 19 19 21 21 22 24 25 26 25 25 25 25 26 26 27 27 27 27 27 27 27 27 26 26 25 23 23 22 23 23 23 24 24 24 25 24 24 24 24 25 25 25 26 26 26 26 25 25 26 25
15 16 17 18 19 20 21 22 23 24 24 24 24 24 25 26 26 26 26 26 26 26 26 26 26 25 24 23 23 23 23 23 23 23 24 24 25 25 25 25 24 25 26 26 26 26 27 27 26 26 26 26
15 16 17 18 18 18 19 20 22 23 22 22 23 24 24 25 25 24 24 24 25 25 25 25 25 24 24 23 24 23 23 23 23 24 25 25 26 26 26 26 25 25 26 26 26 26 27 27 27 27 27 26
16 17 16 17 18 17 17 18 20 21 21 21 22 23 23 23 23 22 22 23 23 24 24 25 25 24 24 24 24 24 23 24 24 25 25 25 26 28 27 27 26 25 26 27 27 27 27 27 28 28 28 28
17 17 17 17 17 17 16 16 17 18 19 20 21 21 21 20 20 20 20 21 23 24 24 25 25 24 24 24 25 25 25 24 24 25 26 26 25 28 29 28 28 27 27 28 28 27 27 27 28 29 28 28
17 16 15 15 15 15 15 15 15 16 17 19 20 20 19 18 18 18 19 20 22 23 24 24 25 24 24 25 26 26 26 25 25 25 26 27 26 27 30 30 29 28 29 30 30 29 28 28 29 29 28 29
18 17 16 15 14 13 13 13 14 15 16 18 19 18 17 17 17 17 18 19 21 22 23 24 24 24 24 25 26 27 27 27 26 26 27 28 28 27 29 30 30 29 30 32 32 30 29 28 29 28 28 29
23 22 22 21 20 17 15 15 15 15 16 18 18 18 18 18 18 18 19 20 21 21 22 23 23 24 24 25 26 27 27 27 27 28 28 29 29 30 30 29 29 29 30 32 33 32 31 30 29 28 29 29
28 28 28 27 26 24 22 20 19 19 20 21 21 22 22 23 22 22 24 24 24 23 23 23 23 23 23 24 26 27 27 27 28 28 29 29 30 31 31 31 28 28 31 34 34 34 33 32 30 29 29 29
30 30 30 31 30 30 28 27 27 27 27 27 27 27 27 27 27 27 28 28 27 26 25 24 23 22 22 23 25 26 27 27 28 28 28 29 30 30 31 32 29 27 30 33 34 35 37 36 32 31 29 27
30 30 31 32 32 33 32 31 31 32 32 32 32 31 30 30 30 30 31 30 29 29 27 26 25 23 21 21 23 25 27 27 27 27 27 28 30 30 31 32 30 28 29 32 34 33 32 30 27 29 28 25
30 31 32 33 34 34 34 34 34 35 35 35 33 33 31 31 31 32 32 32 31 31 30 28 27 26 24 22 21 23 25 27 27 28 28 28 28 29 31 32 30 29 30 32 32 27 24 21 19 22 22 21
29 30 32 34 35 36 36 35 36 36 37 37 35 34 33 32 32 33 34 33 33 33 32 31 29 29 28 26 24 24 24 25 26 27 28 29 29 30 31 32 32 31 31 32 32 30 28 23 18 17 17 18
28 30 32 34 36 37 37 38 38 38 38 38 36 35 34 33 34 34 35 34 34 34 33 32 32 31 31 30 29 28 27 25 25 26 27 28 30 32 32 33 34 34 33 32 33 34 35 31 26 26 24 21
30 33 35 36 37 36 37 39 40 39 39 39 38 37 36 35 35 35 35 36 35 35 34 34 33 32 32 31 31 30 29 28 26 26 26 27 29 31 32 33 35 36 33 33 35 35 36 36 34 34 33 30
Wind_Direction
340 344 349 353 356 359 1 4 3 1 360 359 359 358 358 357 356 356 357 357 356 355 354 350 345 340 335 330 324 321 319 319 319 320 321 320 321 322 323 324 324 322 320 317 315 314 312 311 311 308 307 308
331 335 338 342 348 352 355 357 358 356 355 355 355 355 355 355 354 354 355 354 354 355 354 351 347 342 339 335 330 325 320 316 314 314 314 315 316 317 316 318 320 319 319 319 317 316 314 313 311 309 306 306
323 326 328 333 340 346 349 351 353 352 350 350 351 352 353 353 353 352 352 351 350 352 352 350 347 343 339 336 333 329 325 319 314 310 309 310 311 312 311 311 313 313 314 316 316 316 315 314 313 310 308 306
320 322 324 329 335 341 345 346 347 347 346 345 347 349 349 349 348 349 348 347 346 348 348 347 346 344 341 338 335 333 331 327 320 313 309 308 307 308 308 307 308 309 310 311 312 313 312 313 313 311 309 307
324 325 327 331 334 338 341 341 342 341 341 342 343 345 344 343 342 343 342 342 342 343 343 343 344 345 344 342 339 337 335 332 327 319 312 308 307 306 305 306 307 307 307 309 309 308 308 309 310 310 309 308
328 329 330 333 334 336 338 338 338 338 338 339 340 340 339 338 338 338 337 337 337 339 339 339 342 344 344 344 342 340 337 335 331 325 319 312 308 306 306 306 306 306 306 307 306 305 305 305 307 307 307 307
330 331 331 333 332 333 335 336 335 334 335 335 337 335 335 335 335 335 334 334 333 334 334 335 338 339 340 341 342 341 339 337 333 329 324 318 313 309 308 306 305 304 304 304 303 303 303 303 303 303 304 304
331 331 331 331 331 331 331 332 332 330 331 332 332 330 329 330 330 330 330 330 330 330 330 330 331 332 334 336 337 338 339 339 336 332 328 323 318 313 310 307 304 303 303 303 303 303 302 302 301 301 302 301
329 328 329 330 330 328 327 329 328 327 328 329 327 325 325 325 325 325 324 325 325 327 326 325 325 326 328 330 332 333 336 338 337 335 331 328 323 318 314 310 307 304 303 303 303 303 302 302 302 301 301 300
326 326 327 328 327 325 326 327 325 325 326 326 324 323 322 321 322 321 320 319 320 321 321 322 322 321 322 323 326 328 330 333 335 335 333 330 327 323 319 314 310 306 305 304 303 303 302 302 302 301 301 301
322 324 325 325 324 323 325 324 323 325 326 324 323 322 321 321 321 320 318 317 317 317 317 318 318 318 319 319 321 322 324 326 329 331 332 331 329 326 322 317 312 309 307 305 304 303 302 302 302 303 303 302
319 321 321 322 322 323 324 322 323 325 323 322 322 321 321 321 321 320 318 316 316 315 314 315 315 315 317 317 318 317 318 321 322 325 328 330 330 328 324 319 314 311 308 306 304 302 301 301 302 303 303 302
318 319 319 320 321 323 322 321 323 323 321 321 320 320 321 321 320 320 319 318 317 316 314 313 313 313 314 316 316 315 315 316 317 320 323 326 328 328 325 320 315 311 308 306 303 300 300 300 301 300 299 300
317 318 318 320 321 321 320 320 321 319 319 319 319 320 321 319 318 319 319 318 319 317 314 314 312 312 313 314 315 314 312 312 312 315 318 321 324 325 323 321 316 311 309 306 302 300 299 299 297 296 297 298
318 318 318 320 320 318 318 318 317 316 317 317 318 319 318 317 317 317 318 318 318 317 316 314 313 313 312 313 314 313 310 309 309 311 313 316 318 320 319 319 316 312 310 307 303 299 298 296 294 295 295 296
316 316 316 317 315 314 315 315 314 314 315 315 316 317 316 316 316 316 316 317 317 317 317 316 316 315 314 314 314 310 308 307 307 308 309 311 312 314 315 316 316 313 310 309 305 300 297 295 294 294 293 293
311 311 311 310 309 309 310 311 312 312 313 315 315 315 314 315 315 315 316 316 317 318 318 319 319 318 318 318 315 309 306 305 305 305 305 306 307 309 310 312 313 311 309 309 306 302 299 296 295 293 291 292
309 307 305 303 302 303 305 307 309 311 313 314 314 314 314 314 315 315 315 316 318 319 319 320 321 321 323 322 318 312 309 306 304 303 303 304 304 305 306 307 309 308 307 308 306 303 300 297 294 292 290 290
314 308 303 300 299 299 301 304 307 310 313 314 313 314 313 314 315 315 317 318 319 320 320 321 322 324 325 324 319 316 313 308 305 303 302 302 302 302 302 303 304 304 305 305 304 302 299 296 294 291 289 288
317 310 304 301 299 298 299 303 306 310 313 313 314 313 313 315 316 317 319 320 320 320 321 321 321 324 325 323 320 317 315 311 308 305 302 300 301 301 300 299 300 300 301 301 300 299 297 296 293 290 289 287
320 314 310 309 308 304 303 303 304 308 311 314 315 314 314 316 317 318 321 321 320 319 319 319 319 321 323 321 319 317 316 313 311 309 305 301 300 301 300 298 298 299 299 298 298 297 295 294 291 289 289 289
329 325 323 322 322 318 315 311 307 308 311 313 313 311 311 313 315 317 319 319 318 317 316 316 316 318 319 318 317 316 315 315 314 312 308 304 301 300 299 298 297 298 299 298 296 295 294 292 290 289 289 287
336 330 326 324 326 324 322 318 314 313 313 313 310 307 307 309 312 315 316 316 315 313 312 312 313 314 316 316 315 314 314 315 315 313 310 306 304 301 298 297 296 298 299 297 295 293 292 291 290 290 288 285
342 337 331 327 325 323 322 321 319 318 317 316 313 312 312 312 314 316 319 320 317 314 311 310 310 311 312 313 313 312 312 314 315 313 311 309 308 305 301 298 297 298 299 297 295 294 292 291 289 288 285 283
350 348 343 338 334 330 328 329 329 329 328 325 322 321 320 320 320 321 323 324 322 321 318 313 309 309 310 312 311 310 311 312 313 312 312 311 310 307 304 301 299 300 300 298 297 298 296 291 288 287 286 284
351 350 347 343 340 336 332 331 331 330 331 331 329 327 324 323 324 323 324 325 324 324 324 322 315 309 309 310 310 309 310 311 310 311 311 311 309 308 305 302 300 300 299 297 299 301 298 292 289 287 286 286
350 347 345 342 339 335 330 329 328 327 327 328 328 327 325 324 323 322 322 322 322 321 323 325 323 318 312 310 309 309 309 309 309 309 310 309 308 307 305 302 300 298 296 296 298 298 295 294 294 289 288 288
349 345 342 338 335 332 327 325 325 324 324 323 322 323 323 322 321 319 317 319 319 318 318 319 321 321 318 315 313 309 308 307 308 309 307 306 305 304 302 300 299 297 295 294 294 291 286 291 293 287 287 288
348 343 340 335 332 328 324 322 321 320 321 320 318 318 319 319 318 316 314 315 316 315 314 313 314 315 315 316 315 312 311 310 310 309 307 306 305 301 298 298 298 296 293 292 290 286 280 279 277 274 282 288
345 339 335 332 328 324 320 317 316 317 317 317 316 315 314 315 315 313 312 312 311 310 309 309 308 308 309 310 311 311 311 310 312 310 308 306 303 301 299 297 294 292 293 293 289 285 281 276 271 270 273 280
342 336 332 327 323 320 316 313 312 312 313 313 313 312 311 311 311 310 309 308 307 305 304 304 303 303 303 304 305 307 306 306 310 311 309 306 302 300 298 294 290 290 293 292 288 285 283 280 275 271 268 268